Temp
-5 -7 -7 -6 -8 -6 -6 -6 -6 -6 -6 -6 -7 -6 -6 -6 -5 -5 -5 -5 -5 -5 -5 -5 -5 -5 -4 -5 -5 -5 -5 -5 -5 -5 -5 -5 -5 -5 -5 -5 -5 -5 -6 -6
-5 -7 -6 -6 -7 -6 -6 -5 -6 -6 -7 -6 -6 -6 -6 -6 -6 -6 -5 -5 -5 -4 -4 -4 -4 -4 -4 -4 -5 -5 -5 -5 -5 -5 -5 -5 -5 -5 -5 -5 -5 -5 -6 -6
-6 -7 -7 -6 -7 -6 -5 -5 -6 -6 -7 -6 -5 -6 -5 -6 -6 -7 -6 -5 -5 -5 -4 -4 -4 -4 -4 -4 -4 -4 -5 -5 -5 -5 -5 -5 -5 -5 -5 -5 -5 -5 -6 -6
-7 -7 -7 -6 -6 -6 -6 -6 -6 -6 -6 -6 -6 -6 -5 -6 -6 -7 -7 -6 -5 -5 -5 -4 -5 -4 -4 -4 -4 -4 -4 -5 -5 -5 -5 -5 -5 -5 -5 -5 -5 -5 -6 -5
-7 -7 -7 -6 -7 -7 -6 -4 -4 -4 -5 -6 -6 -7 -7 -5 -6 -6 -7 -7 -6 -5 -5 -5 -5 -4 -4 -5 -4 -5 -5 -5 -5 -5 -5 -5 -5 -5 -5 -5 -5 -5 -5 -5
-7 -7 -7 -7 -7 -7 -4 -4 -4 -5 -5 -5 -5 -6 -5 -4 -5 -5 -6 -6 -6 -6 -5 -5 -5 -5 -5 -5 -5 -5 -5 -5 -5 -5 -5 -5 -5 -6 -5 -5 -5 -5 -5 -5
-6 -6 -6 -6 -6 -5 -5 -5 -5 -4 -4 -5 -5 -5 -5 -5 -6 -5 -5 -5 -6 -6 -6 -6 -5 -5 -5 -5 -5 -5 -5 -5 -5 -5 -6 -6 -6 -6 -5 -5 -5 -5 -5 -5
-6 -6 -6 -6 -5 -7 -6 -6 -5 -4 -4 -5 -6 -6 -5 -5 -6 -5 -5 -5 -6 -6 -6 -6 -5 -5 -5 -5 -5 -5 -5 -5 -5 -5 -6 -6 -6 -6 -6 -6 -6 -6 -6 -5
-6 -6 -7 -7 -6 -6 -7 -6 -5 -5 -4 -4 -5 -5 -6 -5 -6 -5 -6 -5 -5 -6 -6 -6 -6 -6 -6 -5 -5 -5 -5 -5 -5 -5 -6 -6 -5 -6 -6 -6 -5 -5 -5 -5
-7 -7 -7 -6 -6 -5 -6 -6 -6 -5 -4 -4 -5 -5 -5 -7 -7 -7 -6 -4 -4 -5 -5 -6 -6 -6 -6 -6 -6 -6 -6 -5 -5 -5 -6 -6 -6 -6 -5 -5 -5 -5 -5 -5
-6 -7 -7 -6 -6 -6 -6 -5 -5 -5 -4 -4 -5 -6 -7 -6 -6 -6 -5 -5 -5 -6 -5 -5 -5 -6 -6 -6 -6 -6 -6 -6 -6 -5 -6 -6 -5 -5 -5 -5 -5 -5 -5 -5
-6 -7 -6 -6 -6 -7 -6 -6 -5 -5 -5 -5 -6 -6 -6 -6 -6 -5 -5 -7 -5 -6 -6 -5 -5 -6 -6 -5 -6 -6 -6 -6 -6 -6 -6 -6 -6 -5 -5 -5 -5 -5 -5 -5
-6 -6 -6 -7 -6 -6 -6 -6 -6 -6 -5 -5 -6 -6 -7 -6 -6 -6 -5 -5 -6 -6 -6 -6 -5 -6 -6 -6 -5 -6 -6 -6 -6 -6 -6 -6 -6 -6 -6 -6 -5 -5 -5 -5
-6 -7 -7 -7 -7 -7 -7 -6 -6 -6 -6 -6 -7 -7 -7 -7 -7 -6 -6 -5 -6 -6 -6 -6 -7 -6 -6 -6 -6 -6 -6 -6 -6 -7 -7 -6 -6 -6 -6 -6 -6 -6 -5 -5
-7 -7 -7 -8 -7 -7 -8 -7 -7 -6 -6 -7 -8 -7 -6 -6 -6 -6 -6 -6 -6 -6 -6 -7 -7 -6 -6 -7 -7 -7 -7 -6 -6 -6 -6 -6 -6 -6 -6 -6 -6 -6 -5 -5
-8 -8 -8 -7 -8 -7 -7 -7 -7 -7 -7 -7 -8 -7 -6 -7 -6 -7 -6 -6 -6 -6 -6 -6 -7 -7 -6 -7 -7 -6 -6 -7 -7 -6 -6 -6 -6 -6 -6 -6 -6 -5 -5 -6
-7 -8 -8 -8 -8 -8 -7 -7 -7 -8 -8 -8 -8 -8 -6 -5 -6 -6 -6 -6 -6 -6 -6 -6 -6 -7 -7 -7 -7 -7 -6 -7 -7 -6 -5 -5 -5 -5 -5 -5 -5 -6 -7 -7
-7 -7 -8 -8 -8 -8 -8 -8 -7 -7 -8 -8 -8 -7 -6 -6 -6 -6 -6 -6 -7 -7 -7 -7 -6 -7 -7 -7 -7 -7 -7 -5 -8 -9 -8 -7 -7 -6 -5 -5 -5 -5 -6 -6
-7 -7 -7 -8 -8 -8 -8 -9 -8 -8 -8 -8 -8 -7 -6 -6 -7 -6 -6 -6 -6 -7 -7 -7 -7 -7 -7 -7 -7 -7 -6 -6 -7 -8 -9 -7 -7 -7 -7 -6 -6 -5 -7 -7
-7 -7 -7 -7 -8 -9 -8 -8 -8 -8 -9 -8 -7 -7 -7 -7 -7 -6 -6 -6 -6 -6 -7 -7 -7 -7 -8 -7 -7 -7 -8 -7 -6 -8 -8 -8 -7 -7 -8 -7 -6 -7 -7 -8
-7 -7 -7 -7 -8 -9 -8 -8 -8 -8 -8 -7 -7 -8 -7 -7 -7 -7 -6 -6 -6 -6 -7 -7 -7 -7 -7 -7 -7 -7 -7 -7 -8 -8 -8 -7 -7 -7 -7 -8 -7 -7 -4 -7
-7 -7 -8 -8 -8 -9 -5 -7 -7 -7 -8 -7 -7 -7 -7 -7 -7 -7 -7 -7 -7 -7 -7 -7 -7 -7 -7 -7 -8 -8 -8 -8 -8 -8 -7 -6 -7 -7 -6 -6 -7 -7 -7 -6
-6 -7 -6 -7 -6 -7 -7 -7 -7 -7 -7 -7 -7 -7 -7 -7 -8 -7 -7 -7 -7 -7 -7 -7 -7 -8 -8 -7 -8 -8 -8 -7 -8 -7 -7 -7 -6 -7 -7 -5 -6 -6 -7 -8
-7 -6 -7 -7 -6 -6 -7 -7 -7 -7 -7 -7 -7 -7 -7 -7 -7 -7 -8 -7 -8 -8 -8 -9 -9 -9 -9 -9 -9 -9 -8 -7 -8 -8 -7 -8 -7 -7 -8 -7 -7 -8 -8 -7
-6 -7 -7 -7 -6 -6 -7 -7 -7 -7 -7 -7 -7 -7 -7 -7 -8 -8 -9 -9 -8 -8 -9 -9 -9 -10 -10 -10 -10 -9 -9 -8 -9 -8 -8 -7 -7 -7 -7 -8 -8 -8 -8 -8
-6 -6 -6 -7 -6 -6 -6 -7 -7 -7 -7 -7 -7 -7 -7 -7 -8 -9 -9 -9 -9 -9 -9 -9 -10 -10 -10 -10 -10 -9 -9 -9 -9 -9 -8 -8 -9 -8 -9 -8 -9 -9 -8 -8
Height
5924 5926 5926 5913 5922 5936 5937 5939 5937 5932 5930 5927 5929 5931 5927 5925 5925 5925 5927 5927 5928 5928 5929 5930 5932 5933 5934 5935 5937 5938 5941 5943 5944 5945 5945 5946 5948 5948 5949 5948 5947 5944 5944 5941
5923 5926 5923 5925 5930 5937 5939 5942 5939 5938 5931 5918 5923 5931 5929 5927 5927 5928 5928 5929 5929 5930 5930 5931 5931 5933 5935 5936 5937 5939 5940 5942 5944 5944 5946 5947 5948 5948 5948 5947 5947 5946 5946 5946
5923 5931 5924 5929 5935 5937 5940 5940 5937 5939 5934 5930 5931 5932 5932 5929 5928 5928 5928 5928 5929 5930 5931 5932 5933 5934 5935 5937 5938 5939 5940 5942 5943 5945 5946 5947 5947 5948 5948 5947 5947 5946 5947 5948
5922 5927 5929 5931 5932 5935 5939 5934 5935 5937 5936 5930 5931 5933 5934 5931 5927 5927 5927 5927 5929 5930 5930 5931 5933 5934 5935 5937 5938 5939 5940 5941 5943 5944 5946 5947 5947 5948 5947 5947 5947 5948 5948 5949
5926 5928 5929 5927 5930 5933 5933 5931 5934 5937 5936 5938 5925 5928 5931 5932 5925 5925 5926 5927 5928 5929 5930 5931 5932 5934 5935 5936 5937 5939 5939 5940 5941 5943 5945 5946 5947 5947 5947 5947 5948 5948 5949 5950
5922 5924 5925 5926 5931 5929 5931 5934 5935 5936 5937 5938 5931 5926 5931 5925 5915 5921 5925 5927 5927 5930 5930 5931 5931 5933 5934 5935 5937 5938 5939 5940 5941 5942 5944 5945 5945 5945 5945 5946 5948 5949 5950 5950
5921 5922 5923 5924 5925 5928 5931 5933 5934 5938 5940 5940 5932 5929 5919 5920 5904 5899 5926 5929 5927 5929 5930 5930 5932 5932 5933 5935 5936 5938 5939 5940 5941 5941 5943 5943 5944 5944 5945 5945 5947 5949 5950 5951
5925 5927 5925 5925 5925 5928 5933 5936 5937 5936 5938 5936 5927 5920 5925 5906 5920 5922 5929 5928 5927 5927 5927 5930 5932 5933 5934 5935 5936 5937 5938 5939 5940 5941 5942 5942 5942 5943 5944 5945 5947 5948 5949 5950
5925 5927 5925 5925 5925 5927 5929 5933 5936 5935 5940 5938 5924 5926 5924 5913 5933 5930 5930 5928 5925 5925 5927 5929 5931 5932 5933 5934 5935 5936 5937 5938 5939 5939 5940 5941 5941 5942 5943 5944 5946 5947 5948 5950
5919 5925 5923 5923 5923 5925 5926 5930 5932 5937 5938 5930 5929 5928 5924 5926 5933 5935 5931 5929 5926 5923 5923 5927 5929 5931 5932 5933 5933 5934 5937 5938 5938 5938 5938 5938 5939 5939 5940 5942 5944 5946 5947 5949
5915 5921 5925 5922 5923 5925 5928 5930 5932 5934 5937 5936 5924 5926 5929 5927 5933 5934 5935 5934 5903 5927 5927 5925 5928 5929 5931 5932 5932 5933 5934 5935 5937 5937 5937 5938 5939 5939 5939 5940 5943 5944 5945 5947
5914 5918 5924 5927 5925 5926 5928 5931 5934 5936 5934 5934 5921 5923 5918 5928 5931 5932 5933 5931 5902 5928 5927 5927 5927 5929 5930 5930 5930 5930 5931 5932 5932 5934 5934 5936 5937 5938 5939 5939 5941 5942 5943 5944
5909 5917 5923 5923 5925 5924 5925 5929 5931 5932 5933 5929 5930 5921 5914 5922 5926 5927 5928 5927 5928 5928 5927 5924 5926 5928 5928 5929 5929 5928 5928 5929 5930 5931 5931 5932 5933 5934 5935 5937 5938 5939 5940 5941
5909 5912 5920 5920 5917 5919 5924 5926 5926 5927 5932 5929 5925 5912 5886 5916 5919 5922 5923 5923 5923 5924 5925 5927 5928 5924 5927 5927 5926 5926 5925 5926 5926 5928 5929 5929 5930 5931 5932 5933 5934 5935 5937 5939
5907 5912 5916 5915 5913 5916 5918 5924 5924 5925 5926 5927 5918 5906 5906 5912 5915 5918 5920 5921 5921 5922 5924 5924 5923 5922 5924 5924 5922 5923 5922 5922 5922 5923 5923 5923 5923 5924 5926 5928 5929 5931 5932 5935
5902 5907 5910 5913 5914 5917 5917 5920 5921 5923 5922 5922 5922 5907 5900 5906 5912 5915 5915 5915 5917 5918 5917 5920 5922 5918 5918 5920 5919 5920 5920 5920 5918 5916 5919 5921 5921 5921 5922 5923 5924 5926 5928 5929
5898 5900 5904 5907 5912 5914 5916 5915 5917 5918 5919 5917 5915 5907 5902 5907 5911 5909 5910 5910 5910 5911 5912 5914 5912 5912 5911 5915 5914 5907 5908 5908 5914 5915 5913 5913 5916 5916 5915 5917 5919 5919 5918 5920
5894 5897 5900 5902 5904 5907 5911 5904 5908 5909 5909 5908 5907 5901 5903 5906 5904 5903 5903 5904 5903 5903 5903 5906 5905 5905 5904 5905 5904 5898 5887 5879 5901 5909 5908 5907 5911 5914 5915 5912 5911 5912 5912 5911
5891 5893 5895 5897 5900 5903 5905 5900 5899 5903 5905 5903 5900 5897 5897 5900 5897 5895 5897 5897 5897 5896 5895 5895 5895 5894 5893 5896 5896 5888 5890 5885 5889 5894 5903 5907 5905 5906 5908 5909 5907 5902 5903 5905
5888 5889 5891 5894 5895 5899 5897 5894 5896 5898 5901 5891 5895 5894 5893 5892 5889 5889 5890 5890 5889 5888 5887 5886 5885 5882 5882 5883 5884 5885 5884 5883 5886 5888 5891 5900 5900 5898 5899 5902 5899 5896 5896 5898
5885 5886 5888 5889 5890 5894 5887 5890 5892 5893 5891 5886 5889 5888 5886 5885 5885 5882 5882 5882 5881 5879 5879 5878 5877 5873 5870 5870 5870 5871 5874 5875 5876 5881 5884 5890 5894 5895 5891 5892 5889 5889 5885 5883
5882 5884 5885 5885 5886 5887 5883 5886 5887 5887 5884 5883 5882 5881 5880 5878 5878 5876 5874 5873 5872 5870 5869 5869 5868 5866 5860 5863 5859 5863 5861 5864 5868 5874 5877 5876 5876 5877 5882 5883 5875 5867 5858 5845
5879 5880 5880 5880 5879 5881 5880 5880 5880 5880 5878 5878 5876 5873 5872 5872 5870 5869 5866 5864 5863 5861 5860 5858 5858 5857 5855 5853 5853 5853 5855 5856 5855 5860 5862 5859 5859 5857 5861 5867 5865 5858 5861 5865
5875 5876 5877 5877 5876 5877 5877 5875 5875 5875 5873 5871 5870 5868 5865 5865 5863 5861 5858 5856 5854 5852 5851 5849 5848 5847 5846 5846 5845 5844 5846 5848 5849 5844 5847 5847 5847 5844 5845 5852 5856 5858 5860 5859
5871 5873 5872 5872 5870 5873 5872 5871 5870 5869 5867 5865 5863 5861 5860 5858 5858 5854 5852 5850 5848 5846 5845 5844 5843 5842 5838 5838 5839 5839 5839 5840 5841 5839 5836 5840 5837 5834 5837 5840 5842 5847 5851 5852
5866 5867 5868 5866 5867 5867 5867 5868 5864 5863 5861 5860 5858 5857 5855 5853 5851 5849 5848 5846 5843 5843 5842 5840 5839 5837 5834 5833 5833 5834 5835 5833 5832 5836 5836 5834 5830 5830 5833 5836 5839 5841 5843 5842
Wind_Speed
15 11 13 6 15 3 7 6 10 20 15 6 13 11 15 15 10 11 6 3 4 7 8 8 6 7 8 8 8 7 5 4 4 4 3 1 1 3 4 5 3 7 6 5
17 9 7 11 8 4 5 8 6 9 17 5 12 10 11 13 12 8 6 3 1 3 6 7 8 7 6 5 5 6 5 4 2 4 3 1 2 4 5 2 2 6 2 4
15 6 14 0 4 4 7 9 10 2 14 15 10 4 6 10 10 7 3 1 0 2 3 5 5 5 7 7 6 7 7 5 4 5 3 2 3 5 4 3 5 4 1 3
11 15 7 14 9 8 6 20 16 7 9 20 8 12 6 6 10 9 3 2 1 2 3 3 5 5 6 5 7 7 7 6 6 5 4 4 5 5 2 4 2 1 3 3
8 12 17 19 12 9 14 8 5 2 8 9 22 14 11 3 13 13 9 4 4 0 2 3 5 5 5 5 5 6 7 7 7 6 5 4 6 6 4 1 0 1 1 1
20 16 17 14 10 19 12 6 7 12 11 15 26 18 15 11 13 17 15 6 2 3 2 3 3 4 3 3 5 7 8 8 7 5 5 5 6 5 3 3 3 2 2 1
6 9 12 13 17 8 10 7 11 10 15 14 18 16 15 7 21 17 12 9 3 4 4 3 2 3 3 3 4 5 6 6 6 5 6 8 7 6 5 6 5 4 3 2
6 9 15 13 13 10 7 8 10 14 14 4 19 8 11 15 14 5 6 8 3 3 10 6 4 2 2 4 6 6 7 7 6 5 8 10 8 7 7 8 7 6 5 3
2 10 10 10 13 13 8 6 10 12 3 16 16 26 19 28 12 8 8 6 6 2 10 5 3 3 4 6 6 7 8 8 8 7 8 11 10 9 9 8 7 7 6 4
14 4 12 13 12 13 13 13 4 4 9 16 17 23 33 8 7 5 11 7 2 6 9 3 3 4 4 4 5 7 9 10 10 9 9 9 12 11 10 8 7 7 7 6
20 11 10 14 3 5 4 3 11 2 10 12 14 15 0 8 8 13 12 9 11 5 5 7 9 7 7 8 7 8 9 9 10 10 7 8 10 10 10 9 8 7 7 5
15 14 11 10 7 14 17 9 7 6 14 12 17 5 7 5 15 17 16 12 18 5 3 2 7 8 8 9 8 9 8 7 9 12 10 10 10 10 11 11 11 10 9 9
21 20 7 6 12 7 17 8 11 11 8 6 9 22 17 15 17 16 20 20 12 11 11 11 8 9 13 13 12 10 9 10 10 13 14 14 15 15 15 15 16 15 13 12
16 23 8 18 18 9 14 11 20 15 6 16 12 31 2 11 16 22 26 25 20 17 15 13 10 18 11 16 17 14 13 11 11 15 17 18 18 19 19 19 19 20 19 16
16 12 10 6 7 7 10 9 7 15 17 8 22 27 24 18 15 19 23 25 24 24 23 23 20 22 19 17 22 19 18 16 14 16 18 21 24 25 25 24 24 24 23 18
18 10 14 24 8 11 10 8 14 14 14 15 15 30 40 36 29 29 32 33 29 27 30 29 26 30 28 25 27 25 23 23 22 19 18 21 21 21 23 25 25 24 22 20
17 19 17 14 9 11 15 13 16 14 13 18 19 32 47 42 22 23 21 24 30 32 33 31 33 33 34 29 33 40 36 26 25 22 23 23 24 23 24 24 24 23 21 20
18 19 23 19 18 17 11 27 23 25 24 25 31 39 29 23 25 24 22 22 24 30 36 36 37 37 36 35 40 45 48 27 26 25 27 24 26 28 29 27 26 26 27 27
18 20 21 23 19 18 15 17 23 27 34 39 42 38 31 25 30 28 26 24 25 27 32 37 41 42 42 41 42 48 47 45 27 21 27 29 29 29 31 33 35 32 33 29
14 16 20 20 22 12 23 31 33 30 26 36 32 33 31 28 29 29 26 26 27 28 29 33 38 45 47 46 47 46 43 44 34 32 30 39 40 38 39 38 41 38 30 32
12 12 12 14 16 15 30 27 29 30 33 32 29 26 28 27 26 29 28 27 27 30 30 32 36 41 47 49 49 50 48 44 39 38 42 46 42 48 47 43 51 50 34 45
12 12 9 12 17 20 16 11 16 18 22 23 24 24 25 27 26 25 27 27 28 30 31 32 34 38 45 44 48 47 48 46 46 46 47 44 43 42 46 49 56 52 27 27
14 12 14 17 15 13 15 17 16 18 22 21 23 27 25 22 25 24 27 30 30 31 33 33 33 36 41 44 44 45 45 45 47 44 43 45 44 45 41 42 41 50 31 32
13 15 15 18 18 16 16 21 21 21 23 24 25 24 25 21 24 23 25 28 28 29 28 28 29 32 36 38 40 40 39 39 38 41 39 39 42 42 40 38 29 40 42 38
20 14 18 19 22 15 18 22 22 21 22 24 24 23 22 21 17 23 18 16 19 20 21 20 23 25 28 30 33 35 33 34 33 36 35 35 39 43 43 37 36 38 44 39
20 16 18 23 21 20 19 17 21 21 22 22 21 20 19 18 18 13 15 14 21 17 18 20 20 21 24 27 29 30 32 33 30 29 31 30 31 27 26 29 33 30 29 24
Wind_Direction
155 175 249 33 49 15 74 75 321 315 3 44 46 45 38 41 43 65 63 123 168 168 162 163 176 180 170 163 159 156 157 135 96 135 137 120 53 19 3 356 4 323 318 3
174 174 292 91 94 162 85 0 261 304 346 351 74 1 35 42 42 52 48 53 164 208 200 193 183 183 182 178 173 166 159 152 123 159 173 193 1 337 345 12 323 337 309 280
156 231 274 245 218 84 337 245 253 291 276 32 32 59 318 33 53 52 45 80 62 244 233 209 219 209 193 187 176 170 163 169 173 190 206 301 315 323 331 303 287 311 225 172
182 235 265 231 197 139 286 260 273 275 284 318 287 353 342 63 59 52 62 155 178 294 286 260 236 228 226 208 188 188 182 178 180 190 218 273 296 319 295 306 289 159 164 184
217 233 236 228 199 238 217 271 170 329 3 287 298 233 261 81 72 61 64 47 196 276 303 292 239 243 238 219 208 202 185 178 182 206 241 273 293 305 302 287 205 197 244 255
181 234 229 206 235 250 203 142 65 354 347 275 314 341 295 224 124 59 36 36 217 215 271 300 250 231 237 230 214 209 206 191 199 228 256 264 280 292 282 245 244 265 250 279
238 260 241 224 221 222 165 152 350 329 254 263 285 286 322 85 13 138 20 6 62 225 205 172 250 266 274 237 235 218 221 217 228 244 259 269 264 250 241 225 236 246 247 270
303 298 295 268 237 188 236 266 278 317 316 317 220 225 317 53 75 337 335 7 34 270 204 174 208 261 270 264 243 226 227 227 234 261 278 273 258 229 225 225 241 247 268 266
146 253 202 228 245 222 209 151 278 276 280 269 289 307 276 80 58 131 303 28 20 147 140 148 180 214 255 260 258 249 236 236 240 249 260 266 242 222 218 219 239 253 241 270
157 225 275 265 238 232 229 204 210 254 318 294 286 296 305 61 63 0 316 346 351 150 168 203 257 276 305 282 257 255 265 267 252 241 246 245 228 216 221 236 246 251 258 270
205 161 263 320 244 188 252 231 158 271 280 307 317 303 337 31 317 308 301 246 192 83 207 269 278 270 275 276 280 278 263 258 256 232 231 241 235 225 232 231 233 255 265 259
199 172 198 279 194 190 192 220 236 283 284 249 326 345 322 250 286 294 288 285 340 326 323 301 304 291 289 286 276 270 267 247 243 231 219 225 239 242 241 239 247 254 253 253
190 151 153 250 295 277 214 215 208 204 316 309 252 266 275 262 277 288 284 278 274 291 305 307 290 282 294 292 289 291 285 266 252 240 223 224 229 237 243 253 262 264 264 257
193 159 177 275 224 176 263 210 224 195 190 322 277 256 89 261 267 278 280 272 260 261 271 281 290 280 282 290 290 284 289 276 256 247 244 236 234 236 242 247 256 262 258 260
178 183 235 263 328 165 174 215 228 243 213 266 294 281 290 276 275 265 278 270 260 255 258 260 258 263 270 277 273 263 260 263 258 253 242 235 234 235 238 241 243 248 259 263
190 202 242 226 202 258 223 236 246 261 261 270 274 279 277 279 280 281 276 265 256 253 256 259 259 265 262 264 271 264 260 254 249 244 249 251 242 238 239 239 242 244 248 256
211 193 200 217 248 253 265 269 241 256 266 256 250 254 255 272 284 273 263 263 258 257 255 257 260 261 263 260 256 256 251 241 245 263 264 259 253 244 236 235 236 235 237 241
232 229 216 195 208 216 250 238 235 229 224 243 248 266 280 295 287 282 275 272 268 259 258 256 259 260 261 261 261 264 260 221 227 237 246 251 262 264 258 242 234 236 236 238
241 241 242 238 234 237 242 274 275 254 247 250 261 280 288 289 286 278 281 278 274 268 263 261 258 259 262 264 266 271 275 280 223 228 256 260 255 253 251 252 250 236 239 244
237 239 243 244 244 248 247 249 258 272 275 264 260 272 282 291 280 282 281 274 274 270 265 264 264 264 260 263 267 272 280 281 279 280 270 276 257 255 254 250 249 249 242 246
237 240 245 243 241 235 251 255 255 261 261 270 283 284 283 279 281 280 282 278 273 270 267 263 261 263 265 267 269 271 273 277 283 284 281 278 269 274 265 259 253 252 249 240
231 226 233 257 245 240 279 284 261 274 271 278 284 285 285 287 285 283 282 279 275 273 271 268 265 264 266 266 268 269 273 275 275 273 276 279 279 281 269 284 267 258 231 300
242 248 257 253 272 280 278 279 281 276 282 286 288 291 291 287 287 287 284 282 281 278 275 272 267 264 264 267 268 269 272 274 275 277 279 279 278 275 274 278 263 280 272 271
254 251 258 265 266 273 281 276 278 285 285 288 289 289 289 293 291 293 286 288 285 279 275 271 269 269 266 266 269 271 269 270 273 277 276 276 273 269 266 257 267 247 251 268
260 253 254 261 266 267 264 274 281 281 283 288 289 290 291 296 295 295 296 292 289 280 271 276 279 275 272 271 268 266 269 269 271 269 274 280 276 269 267 260 254 248 251 264
261 261 260 260 267 271 274 273 277 280 286 287 287 289 295 295 301 298 281 305 293 281 276 291 286 280 273 273 273 269 266 267 272 266 269 272 286 270 239 242 241 257 283 290